TimeAST,TemperatureF,Dew PointF,Humidity,Sea Level PressureIn,VisibilityMPH,Wind Direction,Wind SpeedMPH,Gust SpeedMPH,PrecipitationIn,Events,Conditions,WindDirDegrees,DateUTC
12:00 AM,64.4,59.0,83,29.98,5.0,Calm,Calm,-,N/A,,Unknown,0,2012-11-22 21:00:00
1:00 AM,66.2,59.0,78,29.95,3.7,East,6.9,-,N/A,,Unknown,90,2012-11-22 22:00:00
2:00 AM,64.4,59.0,83,29.98,3.7,Calm,Calm,-,N/A,,Unknown,0,2012-11-22 23:00:00
3:00 AM,64.4,59.0,83,30.01,3.1,Calm,Calm,-,N/A,,Mist,0,2012-11-23 00:00:00
4:00 AM,64.4,60.8,88,30.06,-9999.0,WNW,11.5,-,N/A,Rain,Rain,300,2012-11-23 01:00:00
5:00 AM,64.4,60.8,88,30.06,-9999.0,NW,6.9,-,N/A,Rain,Light Rain,320,2012-11-23 02:00:00
6:00 AM,63,60,85,30.07,4,Calm,Calm,,,Rain,Light Rain,,2012-11-23 03:00:00
6:00 AM,64.4,62.6,94,30.06,1.9,North,6.9,-,N/A,Rain,Rain,350,2012-11-23 03:00:00
7:00 AM,62.6,62.6,100,30.04,1.2,North,11.5,-,N/A,Rain,Rain,350,2012-11-23 04:00:00
8:00 AM,62.6,62.6,100,30.01,-9999.0,ENE,9.2,-,N/A,,Mostly Cloudy,60,2012-11-23 05:00:00
9:00 AM,64,59,77,30.07,4,South,3.5,,,Rain,Light Rain,180,2012-11-23 06:00:00
9:00 AM,62.6,62.6,100,30.04,1.2,North,11.5,-,N/A,Rain,Rain,350,2012-11-23 06:00:00
10:00 AM,64.4,64.4,100,30.06,1.9,Calm,Calm,-,N/A,Rain,Rain,0,2012-11-23 07:00:00
11:00 AM,64.4,64.4,100,30.06,2.5,SE,6.9,-,N/A,,Overcast,130,2012-11-23 08:00:00
12:00 PM,65,60,78,30.05,5,SSE,2.3,,,Rain,Light Rain,150,2012-11-23 09:00:00
12:00 PM,64.4,64.4,100,30.04,2.5,Calm,Calm,-,N/A,,Overcast,0,2012-11-23 09:00:00
1:00 PM,64.4,64.4,100,30.01,2.2,East,9.2,-,N/A,,Overcast,90,2012-11-23 10:00:00
2:00 PM,64.4,64.4,100,29.98,2.2,ENE,8.1,-,N/A,,Overcast,70,2012-11-23 11:00:00
3:00 PM,64,61,88,29.97,5,NNE,17.9,,,Rain,Light Rain,30,2012-11-23 12:00:00
3:00 PM,62.6,62.6,100,29.95,1.9,ENE,13.8,-,N/A,Rain,Rain,70,2012-11-23 12:00:00
4:00 PM,62.6,62.6,100,29.95,0.9,NE,13.8,-,N/A,Rain,Rain,40,2012-11-23 13:00:00
5:00 PM,62.6,62.6,100,29.95,1.2,NE,11.5,-,N/A,Rain,Rain,40,2012-11-23 14:00:00
6:00 PM,63,60,87,29.97,5,NNE,4.6,,,Rain-Thunderstorm,Thunderstorms and Rain,30,2012-11-23 15:00:00
6:00 PM,62.6,62.6,100,29.95,2.2,NNE,16.1,-,N/A,,Scattered Clouds,30,2012-11-23 15:00:00
7:00 PM,60.8,60.8,100,29.98,2.2,NE,11.5,-,N/A,Rain,Rain,50,2012-11-23 16:00:00
8:00 PM,60.8,60.8,100,29.98,3.7,North,11.5,-,N/A,,Overcast,10,2012-11-23 17:00:00
9:00 PM,62,59,87,29.96,5,NNE,13.4,,,Rain,Light Rain,30,2012-11-23 18:00:00
9:00 PM,62.6,62.6,100,29.95,5.0,ENE,9.2,-,N/A,,Partly Cloudy,60,2012-11-23 18:00:00
10:00 PM,62.6,62.6,100,29.98,5.0,East,9.2,-,N/A,,Scattered Clouds,90,2012-11-23 19:00:00
11:00 PM,62.6,62.6,100,29.95,6.2,ENE,9.2,-,N/A,,Scattered Clouds,60,2012-11-23 20:00:00